User: anonymous   Login
Location: Brno
(49.2000°N, 16.6330°E)
Time: 08:21:01
(UTC+02:00)
Language:

BREEZE M DEB (TANK) - Orbit

View from above orbital plane
View from above orbital plane
View from above satellite
View from above satellite

Ground track
Ground track

The orbit data is extracted from the following two-line orbital elements,

1 28359U 04022B   16181.64872056 +.00000598 +00000-0 +73778-4 0  9998
2 28359 049.5515 038.7605 4681231 288.3711 027.3834 06.18333107263462
Epoch (UTC): 29 June 2016 15:34:09
Eccentricity: 0.4681231
inclination: 49.5515°
perigee height: 291 km
apogee height: 12030 km
right ascension of ascending node: 38.7605°
argument of perigee: 288.3711°
revolutions per day: 6.18333107
mean anomaly at epoch: 27.3834°
orbit number at epoch: 26346

The dashed part of the orbit path shows where the satellite is in the earth's shadow,  

DLR